Weather Service Report


983 
ASHW40 PHFO 202343
RWRHI 

WEATHER ROUNDUP FOR HAWAII
NATIONAL WEATHER SERVICE HONOLULU HI
100 PM HST FRI JUL 20 2018

THIS IS AN AUTOMATED REPORT THAT HAS NOT BEEN QUALITY CONTROLLED.

NOTE..."FAIR" INDICATES FEW OR NO CLOUDS BELOW 12,000 FEET WITH NO
SIGNIFICANT WEATHER AND/OR OBSTRUCTIONS TO VISIBILITY.

* - THESE SITES REPORT LIMITED FIELDS
# - BUOY DATA PROVIDED BY PACIFIC ISLANDS OCEAN OBSERVING SYSTEM.

HIZ001>004-210000-
KAUAI-NIIHAU-
  
CITY           SKY/WX    TMP DP  RH WIND       PRES   REMARKS
LIHUE APT      PTSUNNY   84  73  69 NE12      30.02F HX  90           
PORT ALLEN*      N/A     84 N/A N/A E20G28      N/A                   
POIPU*           N/A     84 N/A N/A NE8G18      N/A                   
PRINCEVILLE*     N/A     81 N/A N/A E12G21      N/A                   
KOKOLE POINT*  NOT AVBL                                               
MOLOAA DAIRY*    N/A     81  70  69 E12G17      N/A                   
WAIMEA HTS*      N/A     90  66  45 E12G22      N/A  HX  92           
PUU OPAE*        N/A     77  66  69 W7          N/A                   
PUU LUA*       NOT AVBL                                               
MAKAHA RIDGE*    N/A     79  64  61 W3          N/A                   
$$

HIZ005>011-210000-
OAHU-
  
CITY           SKY/WX    TMP DP  RH WIND       PRES   REMARKS
HONOLULU       MOSUNNY   87  66  49 NE16      29.97F                  
KALAELOA       PTSUNNY   85  71  63 SE12G20   29.98F HX  90           
KANEOHE MCB    MOSUNNY   83  71  67 NE12      29.96F                  
WHEELER FIELD  PTSUNNY   82  65  57 E14       29.99F                  
BELLOWS*         N/A    N/A N/A N/A NE15        N/A                   
KAHUKU*          N/A    N/A N/A N/A NE9G18      N/A                   
WHEELER*         N/A    N/A N/A N/A SE9G16      N/A                   
WAIANAE HARBOR   N/A    N/A N/A N/A W13G18      N/A                   
DILLINGHAM*    NOT AVBL                                               
KAHUKU TRN*      N/A     84  70  61 W6G20       N/A                   
KAWAILOA*        N/A     79  64  61 E9          N/A                   
KII*             N/A     82  72  69 E14         N/A                   
MAKUA RANGE*     N/A     84  68  58 W9          N/A                   
OAHU FOREST NW   N/A     79  66  65 E12G26      N/A                   
SCHOFIELD BRK*   N/A     82  64  54 SE8         N/A                   
SCHOFIELD S*   NOT AVBL                                               
WAIANAE VLY*     N/A    N/A N/A N/A NW6         N/A                   
KUAOKALA*        N/A     77  70  78 NE9G22      N/A                   
HONOULIUULI*   NOT AVBL                                               
MOKUOLOE IS*   NOT AVBL                                               
PALEHUA*         N/A     79  63  57 E8G18       N/A                   
WAIAWA PHB*    NOT AVBL                                               
$$

HIZ012>013-210000-
MOLOKAI-
  
CITY           SKY/WX    TMP DP  RH WIND       PRES   REMARKS
MOLOKAI AIRPT  MOSUNNY   86  69  56 NE16G24   29.97F HX  90           
KALAUPAPA      NOT AVBL                                               
MAKAPULAPAI*     N/A     84  68  58 E17         N/A                   
MOLOKAI 1*     NOT AVBL                                               
PUU ALII*        N/A     69  62  78 N1G8        N/A                   
$$

HIZ016-210000-
KAHOOLAWE-
  
CITY           SKY/WX    TMP DP  RH WIND       PRES   REMARKS
KAHOOLAWE*     NOT AVBL                                               
HAKIOAWA*        N/A     77  68  73 N15       30.38F                  
HONOKANAIA*    NOT AVBL                                               
KANELOA*         N/A     81  70  69 E20       30.05F                  
KEALIALALO*    NOT AVBL                                               
LUA MAKIKA*    NOT AVBL                                               
$$

HIZ014>015-210000-
LANAI-
  
CITY           SKY/WX    TMP DP  RH WIND       PRES   REMARKS
LANAI CITY     CLOUDY    76  64  66 N5        30.03F                  
LANAI 1*       NOT AVBL                                               
$$

HIZ017>028-210000-
MAUI-
  
CITY           SKY/WX    TMP DP  RH WIND       PRES   REMARKS
KAHULUI        MOSUNNY   86  69  56 NE22G32   29.95F HX  90           
KAPALUA-W MAUI MOSUNNY   84  66  54 NE17      29.98F                  
HANA AIRPORT   NOT AVBL                                               
HANA*            N/A     81 N/A N/A NE10        N/A                   
HALEAKALA SUMM   N/A     59  14  17 E8          N/A                   
MAALAEA BAY*     N/A     86 N/A N/A N21G31      N/A                   
HALEAKALA*     NOT AVBL                                               
KAUPO GAP*     NOT AVBL                                               
KULA 1*          N/A     62  57  83 W3G9        N/A                   
$$

HIZ023>026-210000-
BIG ISLAND OF HAWAII COAST AND LOWER SLOPES-
  
CITY           SKY/WX    TMP DP  RH WIND       PRES   REMARKS
KAILUA KONA    PTSUNNY   86  67  52 SW12      29.91F                  
HILO           MOSUNNY   84  70  62 N8        29.98F                  
HONOKAA*         N/A     79 N/A N/A VRB1        N/A                   
KAWAIHAE MWT*    N/A     86 N/A N/A W12         N/A                   
KAWAIHAE*        N/A     82 N/A N/A SW12      29.90F                  
SOUTH POINT*     N/A     79 N/A N/A N18G26      N/A                   
UPOLU AIRPORT* NOT AVBL                                               
KAMUELA*       PTCLDY    79  63  57 N21       30.05F                  
HAKALAU*         N/A     66  59  78 NE5         N/A                   
KALOKO-HONOKO*   N/A     88  68  51 SW7       29.91F HX  91           
PALI 2*          N/A     75  59  57 NE15        N/A                   
KEALAKOMO*       N/A     84  68  58 E20         N/A                   
KAUPULEHU*       N/A     86  64  48 W12G22      N/A                   
KAPAPALA*        N/A     74  67  77 S5G12       N/A                   
LOWER KAHUKU*    N/A     72  64  78 NE3G12      N/A                   
PUHE CS*         N/A     90  70  51 W6G12       N/A  HX  95           
PUHO CS*         N/A     84  69  59 W3          N/A                   
PTA KEAMUKU*     N/A     77  57  50 NE21        N/A                   
WAIKOLOA*        N/A     88  59  37 NE14G25     N/A                   
$$

HIZ027>028-210000-
BIG ISLAND OF HAWAII INTERIOR AND SUMMMITS-
  
CITY           SKY/WX    TMP DP  RH WIND       PRES   REMARKS
BRADSHAW FIELD PTSUNNY   74  52  45 W7        30.28F                  
MK VISITOR CEN   N/A     59  48  67 W7          N/A                   
MAUNA KEA*       N/A     48  18  29 NE14        N/A                   
MAUNA LOA*       N/A     55  39  54 MISG        N/A                   
MAUNA LOA 1*   NOT AVBL                                               
PTA KIPUKA*      N/A     72  55  56 S7          N/A                   
PTA RANGE 17*    N/A     72  55  56 E12G18      N/A                   
PTA WEST*        N/A     75  55  50 NW13G25     N/A                   
NENE CABIN*      N/A     46  43  87 E5G12       N/A                   
AHUMOA*          N/A     70  58  66 N10G18      N/A                   
PTA PORTABLE*  NOT AVBL                                               
PUU MALI*        N/A     64  55  72 NE14        N/A                   
$$

HIC003-210000-
NORTHWEST ISLANDS-
  
CITY           SKY/WX    TMP DP  RH WIND       PRES   REMARKS
MIDWAY ISLAND  MOSUNNY   81  68  65 NE23      30.17S                  
MIDWAY NOS*      N/A     79 N/A N/A MISG      30.15F                  
FRENCH FRIGATE NOT AVBL                                               
$$

PHZ110>124-180-210000-
BUOY REPORTS
  
STATION/POSITION TIME  TEMP    WIND        PRES    WAVE   SWELL
                       AIR SEA DIR/SP/G            HT/PER HT/DIR
                 (UTC) (F)     (DEG/KT/KT) (MB)    (FT/S) (FT/D)
BUOY 51101       NOT AVBL
BUOY 51100       NOT AVBL
BUOY 51002       2320   80      80/ 14/ 17 1013.3
BUOY 51003       2250   80 81   70/ 12/ 14 1013.7F   6/ 9   5/100
BUOY 51004       2320   78 80   60/ 14/ 17   N/A
WAIMEA BAY#      NOT AVBL
MOKAPU POINT#    2304      80                N/A     5/ 9   2/130
LANAI#           NOT AVBL
BARBERS PT 2#    NOT AVBL
PAUWELA#         2300      79                N/A     5/ 8
HILO#            2327      81                N/A     6/ 8
KANEOHE BAY#     2324      79                N/A     4/ 8
KANEOHE BAY 2#   NOT AVBL
HANALEI#         2306      81                N/A     5/ 8
KAHULUI HARBOR   2312   79 82   40/ 19/ 23 1014.1
HONOLULU HARBOR  2312   83 80   30/  7/ 12 1014.2
PEARL HARBOR#    2300      80                N/A     4/15   2/170
KILO NALU        NOT AVBL
HILO HARBOR      2312   81 79   20/  5/  7 1014.5
MOKUOLOE         2236   81 81   70/  8/ 13 1015.6F
NAWILIWILI       2312   79 82   60/ 10/ 14 1015.9
WHOTS BUOY       NOT AVBL
BUOY 51028       NOT AVBL
$$

......................KEY........................................
  SKY/WX - SKY CONDITIONS/PRESENT WEATHER
  TMP    - TEMPERATURE IN FAHRENHEIT
  DWPT   - DEWPOINT IN FAHRENHEIT
  RH     - RELATIVE HUMIDITY IN PERCENT
  WIND   - DIRECTION AND SPEED /MPH FOR ISLANDS...KTS FOR BUOYS/
  PRES   - MEAN SEA LEVEL PRESSURE IN INCHES OF HG
  VSB    - VISIBILITY IN MILES
  HX     - HEAT INDEX
  WCI    - WIND CHILL INDEX
  VRB    - VARIABLE WIND DIRECTION
  N/A    - NOT AVAILABLE
  

Return to Home page


Western Regional Climate Center, wrcc@dri.edu